Location: Altavilla Irpina
(41.0000°N, 14.7833°E)
Time: 00:44:30
(UTC+00:00)

Cosmos 2151 - Pass Details

Date: 19 May 2025
Orbit: 562 x 578 km, 82.5° (Epoch: 22 June)

Event Time Altitude Azimuth Distance (km) Brightness Sun altitude
Rises 19:10:04 0° 350° (N) 2,802 7.2 -9.5°
Reaches altitude 10° 19:12:16 10° 349° (N) 1,900 6.3 -9.8°
Maximum altitude 19:16:27 78° 265° (W) 597 3.1 -10.4°
Drops below altitude 10° 19:20:37 10° 178° (S) 1,886 5.2 -11.0°
Enters shadow 19:21:37 - 178° (S) 2,298 5.6 -11.2°
